This is the latest recevied weather packets stored in our database for station/object WB0OCV. If no packets are shown the sender has not sent any weather packets the latest 10 day(s).
| Time | Temp. | Humidity | Pressure | Rain* | Wind** | Luminosity | Snow |
|---|---|---|---|---|---|---|---|
| 1777992382 | 17.78° C | 69% | 1015.2 hPa | 0 mm | - | 707 W/m² | - |
| 1777992080 | 17.22° C | 72% | 1015.3 hPa | 0 mm | - | 696 W/m² | - |
| 1777991777 | 17.22° C | 72% | 1015.1 hPa | 0 mm | - | 687 W/m² | - |
| 1777991474 | 17.78° C | 71% | 1015.1 hPa | 0 mm | - | 677 W/m² | - |
| 1777991171 | 17.22° C | 72% | 1015.1 hPa | 0 mm | - | 668 W/m² | - |
| 1777990869 | 16.67° C | 72% | 1015.2 hPa | 0 mm | - | 656 W/m² | - |
| 1777990566 | 17.22° C | 72% | 1015.3 hPa | 0 mm | - | 644 W/m² | - |
| 1777989959 | 17.22° C | 71% | 1015.1 hPa | 0 mm | - | 621 W/m² | - |
| 1777989656 | 17.22° C | 72% | 1015.4 hPa | 0 mm | - | 606 W/m² | - |
| 1777989352 | 16.67° C | 74% | 1015.2 hPa | 0 mm | - | 594 W/m² | - |
| 1777989049 | 16.67° C | 75% | 1015 hPa | 0 mm | - | 579 W/m² | - |
| 1777988744 | 16.11° C | 75% | 1015 hPa | 0 mm | - | 564 W/m² | - |
| 1777988442 | 16.67° C | 74% | 1015 hPa | 0 mm | - | 526 W/m² | - |
| 1777988139 | 16.11° C | 76% | 1015.1 hPa | 0 mm | - | 569 W/m² | - |
| 1777987834 | 15.56° C | 77% | 1015.4 hPa | 0 mm | - | 516 W/m² | - |
| 1777987532 | 15.56° C | 78% | 1015.3 hPa | 0 mm | - | 110 W/m² | - |
| 1777987229 | 15.56° C | 78% | 1015.2 hPa | 0 mm | - | 127 W/m² | - |
| 1777986925 | 15.56° C | 78% | 1015.2 hPa | 0 mm | - | 95 W/m² | - |
| 1777986624 | 15° C | 79% | 1015.2 hPa | 0 mm | - | 91 W/m² | - |
| 1777986321 | 15° C | 78% | 1015.3 hPa | 0 mm | - | 114 W/m² | - |
| 1777986020 | 15.56° C | 78% | 1015.4 hPa | 0 mm | - | 86 W/m² | - |
| 1777985716 | 15.56° C | 78% | 1015.2 hPa | 0 mm | - | 83 W/m² | - |
| 1777985413 | 15.56° C | 77% | 1015.1 hPa | 0 mm | - | 78 W/m² | - |
| 1777985109 | 15.56° C | 79% | 1015 hPa | 0 mm | - | 108 W/m² | - |
| 1777984806 | 15.56° C | 78% | 1014.9 hPa | 0 mm | - | 71 W/m² | - |
* Rain latest hour (hover to see other rain measurements)
** Current wind speed in m/s (hover to see current wind gust speed)